TimeAKDT,TemperatureF,Dew PointF,Humidity,Sea Level PressureIn,VisibilityMPH,Wind Direction,Wind SpeedMPH,Gust SpeedMPH,PrecipitationIn,Events,Conditions,WindDirDegrees,DateUTC
12:53 AM,23.0,18.0,81,29.92,10.0,Calm,Calm,-,N/A,,Clear,0,2014-04-02 08:53:00
1:53 AM,23.0,18.0,81,29.92,10.0,Calm,Calm,-,N/A,,Clear,0,2014-04-02 09:53:00
2:53 AM,21.0,18.0,88,29.92,10.0,Calm,Calm,-,N/A,,Clear,0,2014-04-02 10:53:00
4:53 AM,18.0,16.0,92,29.91,10.0,Calm,Calm,-,N/A,,Clear,0,2014-04-02 12:53:00
5:53 AM,18.0,15.1,88,29.91,10.0,Calm,Calm,-,N/A,,Clear,0,2014-04-02 13:53:00
6:53 AM,18.0,15.1,88,29.91,10.0,NNE,3.5,-,N/A,,Clear,30,2014-04-02 14:53:00
7:53 AM,18.0,15.1,88,29.91,6.0,NNE,3.5,-,N/A,,Clear,30,2014-04-02 15:53:00
8:53 AM,23.0,18.0,81,29.91,10.0,Calm,Calm,-,N/A,,Clear,0,2014-04-02 16:53:00
9:53 AM,28.0,19.9,72,29.91,10.0,Calm,Calm,-,N/A,,Clear,0,2014-04-02 17:53:00
10:53 AM,32.0,21.0,64,29.91,10.0,North,3.5,-,N/A,,Clear,350,2014-04-02 18:53:00
11:53 AM,35.1,19.0,52,29.91,10.0,Calm,Calm,-,N/A,,Clear,0,2014-04-02 19:53:00
12:53 PM,37.0,19.0,48,29.90,10.0,Calm,Calm,-,N/A,,Clear,0,2014-04-02 20:53:00
1:53 PM,37.9,15.1,39,29.89,10.0,Calm,Calm,-,N/A,,Clear,0,2014-04-02 21:53:00
2:53 PM,41.0,18.0,40,29.88,10.0,Calm,Calm,-,N/A,,Clear,0,2014-04-02 22:53:00
3:53 PM,41.0,18.0,40,29.87,10.0,SSW,6.9,-,N/A,,Clear,210,2014-04-02 23:53:00
4:53 PM,42.1,17.1,37,29.85,10.0,NW,4.6,-,N/A,,Clear,320,2014-04-03 00:53:00
5:53 PM,42.1,18.0,38,29.84,10.0,NNW,5.8,-,N/A,,Clear,330,2014-04-03 01:53:00
6:53 PM,39.9,19.9,45,29.83,10.0,North,8.1,-,N/A,,Clear,350,2014-04-03 02:53:00
7:53 PM,37.0,21.0,52,29.83,10.0,North,4.6,-,N/A,,Clear,360,2014-04-03 03:53:00
8:53 PM,35.1,19.0,52,29.83,10.0,NNE,5.8,-,N/A,,Clear,30,2014-04-03 04:53:00
9:53 PM,28.9,19.9,69,29.83,10.0,Calm,Calm,-,N/A,,Partly Cloudy,0,2014-04-03 05:53:00
10:53 PM,26.1,21.0,81,29.82,10.0,NNW,3.5,-,N/A,,Mostly Cloudy,330,2014-04-03 06:53:00
11:53 PM,26.1,19.9,78,29.83,10.0,Calm,Calm,-,N/A,,Clear,0,2014-04-03 07:53:00